Regional Weather Roundup
Issued by NWS Cleveland, OH

Home | Current Version | Previous Version | Graphics & Text | Print | Product List | Glossary On
Versions: 1 2 3 4 5 6 7 8 9 10 11 12 13 14 15 16 17 18 19 20 21 22 23 24 25 26 27 28 29 30 31 32 33 34 35 36 37 38 39 40 41 42 43 44 45 46 47 48 49 50
000
ASUS41 KCLE 262200
RWRCLE
OHIO REGIONAL WEATHER ROUNDUP
NATIONAL WEATHER SERVICE WILMINGTON, OH
600 PM EDT THU MAR 26 2015

NOTE: "FAIR" INDICATES FEW OR NO CLOUDS BELOW 12,000 FEET WITH NO
SIGNIFICANT WEATHER AND/OR OBSTRUCTIONS TO VISIBILITY.

OHZ001>008-015>018-024>027-034-035-043-044-262300-
   NORTHWEST OHIO

CITY           SKY/WX    TMP DP  RH WIND       PRES   REMARKS
DEFIANCE       CLOUDY    44  28  53 NW16      29.90R
FINDLAY        CLOUDY    42  31  64 NW13      29.87S
TOLEDO EXPRESS CLOUDY    43  27  53 W13       29.87R
TOLEDO EXEC    CLOUDY    44  29  55 W10       29.88R
LIMA           CLOUDY    42  32  67 W12       29.89S
$$

OHZ009>014-019>023-028>033-038-089-262300-
   NORTHEAST OHIO

CITY           SKY/WX    TMP DP  RH WIND       PRES   REMARKS
CLE-HOPKINS    CLOUDY    37  34  89 W9        29.88R
CLE-LAKEFRONT  CLOUDY    34  32  92 W6        29.85S WCI  29
CUY CO. ARPT   CLOUDY    37  36  93 W8        29.84F FOG
LORAIN-ELYRIA  CLOUDY    38  34  85 NW8       29.87R
ASHTABULA      CLOUDY    35  33  92 W5        29.83F
AKRON-CANTON   CLOUDY    39  35  86 NW8       29.82R
WOOSTER        NOT AVBL
MANSFIELD      CLOUDY    38  35  89 NW7       29.85R
YOUNGSTOWN     CLOUDY    37  35  92 N9        29.81S
$$

OHZ042-051>053-060>062-070>072-077>081-262300-
  SOUTHWEST OHIO

CITY           SKY/WX    TMP DP  RH WIND       PRES   REMARKS
CINC-COVINGTON CLOUDY    43  36  76 NW12      29.90R
CINC-LUNKEN    CLOUDY    43  38  82 NW9       29.92R
HAMILTON       CLOUDY    44  36  73 NW12      29.92R
DAYTON         NOT AVBL
WRIGHT-PAT AFB NOT AVBL
DAYTON GENERAL CLOUDY    41  34  76 NW13      29.90R
WILMINGTON     CLOUDY    41  36  82 NW14      29.88R
$$

OHZ036-037-039>041-045>050-054>059-063>069-073>076-082>088-262300-
  CENTRAL AND SOUTHEAST OHIO

CITY           SKY/WX    TMP DP  RH WIND       PRES   REMARKS
COLUMBUS       CLOUDY    41  37  86 NW13G22   29.87R
OSU AIRPORT    CLOUDY    41  35  79 NW10G20   29.87R
BOLTON FIELD   NOT AVBL
RICKENBACK AFB NOT AVBL
NEWARK         CLOUDY    43  38  82 NW15      29.85R
MARION         CLOUDY    40  32  73 NW12      29.88R
LANCASTER      CLOUDY    44  40  85 NW14      29.86R
ZANESVILLE     CLOUDY    45  40  82 NW7       29.83R
NEW PHILLY     CLOUDY    44  38  79 N5        29.83R
$$



USA.gov is the U.S. government's official web portal to all federal, state and local government web resources and services.